Location: Township of South Roscoe
(37.9570°N, 100.1180°W)
Time: 04:59:55
(UTC+00:00)

ISS - Visible Passes

Search period start: 25 January 2022 00:00
Search period end: 04 February 2022 00:00
Orbit: 413 x 422 km, 51.6° (Epoch: 25 January)

Date Brightness Start Highest point End Pass type
(mag) Time Alt. Az. Time Alt. Az. Time Alt. Az.
30 Jan -0.9 01:53:54 10° NNW 01:54:02 11° NNW 01:54:02 11° NNW visible
31 Jan -1.5 01:06:18 10° N 01:07:42 12° NNE 01:08:04 12° NNE visible
01 Feb -1.6 01:53:54 10° NNW 01:55:07 19° NNW 01:55:07 19° NNW visible
02 Feb -2.3 01:06:02 10° NNW 01:08:40 21° NNE 01:09:20 20° NE visible
03 Feb -2.9 01:54:10 10° NW 01:56:39 46° NW 01:56:39 46° NW visible
